Flag for Germany Weather past 2 weeks in Schleswig, Schleswig-Holstein, Germany

Now
45 °F

Light rain. Overcast.


Feels Like: 41 °F
Forecast: 42 / 57 °F
Wind: 7 mph from Northwest

Location: Schleswig

Current Time: Apr 22, 2015 at 3:49:58 AM

Latest Report: Apr 22, 2015 at 3:00 AM


Visibility: 13 mi

Pressure: 30.27 "Hg

Humidity: 87%

Dew point: 41 °F

Location of SchleswigLocation

Historic Weather in Schleswig — Graph

°F

Schleswig temperature yesterday

Maximum temperature yesterday: 58 °F (at 12:00 PM)
Minimum temperature yesterday: 42 °F (at 6:00 AM)
Average temperature yesterday: 50 °F

Past Weeks' High & Low Weather Summary

 TemperatureHumidityPressure
High64 °F (Apr 20, 4:00 PM)98% (Apr 7, 9:00 PM)30.56 "Hg (Apr 7, 9:00 PM)
Low35 °F (Apr 10, 7:00 AM)24% (Apr 20, 7:00 PM)29.84 "Hg (Apr 15, 4:00 PM)
Average47 °F75%30.21 "Hg
* Reported Apr 7 2:00 AM — Apr 22 2:00 AM, Schleswig, Weather by CustomWeather, © 2015

Note: Actual official high and low records may vary slightly from our data, if they occured in-between our weather recording intervals... More about our weather records

Advertising

Schleswig weather history for previous 24 hours

 ConditionsComfort  
Time TempWeatherWind HumidityBarometerVisibility
2:00 AM
Wed, Apr 22
45 °FOvercast.6 mph86%30.30 "Hg16 mi
1:00 AM45 °FPassing clouds.6 mph84%30.32 "Hg16 mi
12:00 AM46 °FOvercast.6 mph83%30.34 "Hg16 mi
10:00 PM
Tue, Apr 21
45 °FPassing clouds.7 mph84%30.35 "Hg16 mi
9:00 PM45 °FPassing clouds.7 mph84%30.35 "Hg17 mi
8:00 PM47 °FScattered clouds.7 mph79%30.35 "Hg17 mi
7:00 PM49 °FPassing clouds.6 mph70%30.34 "Hg17 mi
6:00 PM51 °FPassing clouds.9 mph69%30.35 "Hg12 mi
5:00 PM53 °FScattered clouds.10 mph67%30.35 "Hg16 mi
4:00 PM55 °FScattered clouds.9 mph63%30.35 "Hg19 mi
3:00 PM58 °FScattered clouds.8 mph58%30.35 "Hg19 mi
2:00 PM58 °FScattered clouds.7 mph59%30.36 "Hg19 mi
1:00 PM57 °FScattered clouds.10 mph60%30.36 "Hg19 mi
12:00 PM58 °FScattered clouds.8 mph51%30.35 "Hg19 mi
10:00 AM55 °FScattered clouds.8 mph58%30.34 "Hg19 mi
9:00 AM51 °FScattered clouds.6 mph67%30.35 "Hg19 mi
8:00 AM46 °FScattered clouds.6 mph77%30.35 "Hg19 mi
7:00 AM42 °FPartly sunny.5 mph85%30.34 "Hg19 mi
6:00 AM42 °FPassing clouds.6 mph81%30.34 "Hg19 mi
4:00 AM44 °FPassing clouds.6 mph74%30.35 "Hg19 mi
3:00 AM46 °FPassing clouds.5 mph74%30.36 "Hg19 mi
Weather by CustomWeather, © 2015

See weather overviewHow to use our weather pages